Wind_Speed
81 78 79 78 80 82 82 82 77 76 80 80 80 80 82 81 81 84 86 87 87 86 85 82 82 81 80 80 82 83 86 85 89 91 97 102 104 104 97 90 89 91 99 106
84 84 84 82 84 85 84 85 84 80 81 80 81 79 79 82 82 81 80 81 82 84 84 77 77 76 78 80 79 79 83 85 86 88 98 101 102 94 88 84 86 93 99 104
89 87 84 85 87 88 89 90 87 84 83 82 81 79 78 79 77 76 75 75 73 75 74 74 74 75 75 75 75 77 79 78 81 90 95 96 89 81 79 80 85 92 98 101
90 87 84 86 88 89 89 92 90 89 87 84 82 81 78 73 72 69 65 62 62 65 67 68 68 69 68 70 71 74 74 75 81 88 88 83 73 72 75 80 86 93 98 98
94 89 86 87 85 89 88 89 90 89 88 86 82 77 69 63 58 54 52 49 50 49 53 58 59 63 66 67 70 70 68 72 78 82 81 72 67 70 74 80 88 96 98 95
98 96 90 89 88 90 90 87 84 79 78 75 68 59 52 43 37 36 37 38 39 41 44 48 53 57 61 63 65 64 66 71 72 75 69 64 64 69 74 82 90 96 97 90
85 85 79 78 79 78 77 69 64 60 58 54 48 35 33 31 28 32 33 36 38 40 43 48 52 55 57 58 56 61 65 70 72 66 60 58 64 68 73 82 89 96 95 86
65 61 67 67 68 65 56 50 47 45 36 32 30 30 28 26 24 29 33 35 40 44 48 48 51 51 46 51 57 65 67 65 62 59 54 56 63 68 74 82 90 96 90 82
49 50 56 59 56 47 42 40 35 27 26 22 22 23 23 23 23 28 34 39 44 46 47 47 36 38 48 52 61 65 62 59 56 50 52 58 64 70 75 82 90 95 85 80
39 44 51 51 46 40 36 26 23 22 22 21 21 25 20 27 30 32 39 42 44 46 44 36 36 43 50 59 61 61 56 54 46 47 52 60 66 72 76 83 90 92 81 78
44 45 48 46 40 36 26 23 23 23 25 20 19 27 24 29 33 37 39 40 41 40 33 33 41 43 58 62 59 53 54 43 41 46 53 61 67 72 77 82 90 84 79 75
45 47 44 44 38 31 24 25 25 26 24 22 21 26 30 31 34 35 37 40 36 29 28 35 44 49 62 62 51 52 42 37 41 46 54 61 68 71 76 84 85 79 77 72
44 47 47 41 33 30 27 31 27 24 25 24 23 28 30 31 32 34 34 33 26 27 30 39 48 56 65 52 51 43 34 35 40 47 55 62 65 70 78 84 77 76 74 68
41 41 41 42 37 31 33 28 23 25 27 23 27 30 28 29 31 31 30 22 26 27 34 43 51 59 51 48 41 32 29 35 41 49 55 60 64 71 80 78 74 73 71 64
45 46 42 41 34 32 28 22 23 28 26 28 26 28 27 29 30 28 23 24 27 31 38 45 51 58 46 42 28 28 29 35 42 50 55 59 65 72 79 72 72 70 67 60
50 47 43 39 32 31 24 25 30 28 28 25 22 27 25 30 29 22 21 25 29 38 45 50 56 44 40 27 24 26 30 37 44 50 55 60 66 75 72 69 68 66 64 58
45 41 42 40 36 29 29 29 31 29 27 22 19 23 26 26 17 16 21 23 31 37 46 50 41 39 27 23 24 27 32 38 44 50 55 59 68 72 67 65 65 63 61 56
43 42 42 40 36 32 31 32 30 30 25 17 15 17 25 15 13 17 18 22 30 38 45 42 35 28 23 23 25 28 33 38 43 49 54 61 68 65 64 63 60 58 58 55
39 38 40 37 34 37 34 31 30 26 17 13 15 21 18 9 15 18 21 25 32 40 47 35 31 26 24 24 26 29 33 37 44 48 55 63 64 61 62 59 56 55 55 54
40 43 43 41 40 40 36 32 29 18 13 15 19 19 14 10 17 19 19 27 34 44 41 29 27 25 24 25 27 29 33 40 43 50 56 61 57 58 57 55 54 54 55 55
48 49 46 44 43 43 37 32 24 16 18 19 17 15 8 11 17 19 22 29 34 45 35 25 25 25 24 25 28 30 35 39 45 51 57 54 54 54 53 52 53 54 52 54
53 51 47 44 42 41 38 32 21 18 18 19 17 13 7 12 16 19 24 32 38 45 33 24 22 23 24 25 28 31 35 40 46 52 51 49 50 49 49 51 52 52 52 53
53 50 47 44 43 39 38 31 24 19 19 16 11 6 8 15 13 19 26 33 41 37 28 23 21 23 24 27 29 32 36 42 47 45 43 44 44 46 47 50 52 52 53 53
54 51 48 46 43 38 37 29 20 17 17 9 7 5 11 18 13 21 27 34 37 34 28 25 24 24 26 28 30 33 37 40 35 37 39 41 43 46 48 50 52 53 53 52
55 50 47 44 37 36 33 23 20 19 13 11 6 7 13 15 14 21 27 33 35 29 28 25 25 26 27 26 28 31 29 27 32 35 37 40 43 47 49 50 50 52 53 53
55 52 49 42 34 34 30 23 20 14 13 10 7 8 14 8 16 22 28 33 30 28 26 23 24 23 23 22 21 20 25 30 32 36 38 42 45 46 46 48 51 53 53 55
Wind_Direction
262 264 264 266 269 268 268 267 268 270 274 276 278 278 281 281 280 279 280 280 282 284 289 293 295 298 302 306 307 309 309 310 310 310 311 312 312 314 316 317 318 321 320 319
264 265 264 266 268 269 270 271 270 270 273 275 277 278 280 281 282 283 283 284 286 283 288 292 295 298 302 305 308 307 307 309 309 309 310 311 312 316 317 320 323 323 322 322
265 263 265 266 267 268 270 272 273 275 276 277 279 281 280 283 284 285 286 287 291 291 289 292 296 299 301 307 307 305 307 309 308 310 310 312 317 320 322 324 324 326 325 325
265 264 264 263 265 268 270 273 274 276 277 279 280 282 284 284 285 286 288 292 296 294 292 293 295 300 304 306 304 305 309 309 308 308 311 316 320 321 324 325 328 329 329 328
266 264 265 264 264 266 267 268 270 272 274 277 280 282 286 287 287 290 292 293 293 295 296 296 298 301 302 303 303 308 309 309 308 310 315 320 322 325 327 330 332 333 333 333
266 264 264 264 263 264 265 268 270 273 274 276 278 284 287 288 293 291 291 290 291 293 297 298 298 298 300 303 306 306 307 311 314 315 321 322 325 326 331 333 334 336 336 337
262 261 259 259 259 260 264 265 268 271 273 278 283 282 280 285 286 285 284 285 288 290 292 291 295 300 305 307 306 309 313 315 317 322 324 325 325 329 334 336 337 338 339 340
260 258 251 247 250 255 258 260 264 268 273 280 279 275 275 280 280 272 276 279 282 284 286 297 308 309 311 311 312 315 316 316 319 324 324 327 326 332 335 337 338 340 342 343
252 243 243 242 244 245 248 252 258 256 270 269 271 268 269 270 268 269 273 277 281 286 296 308 311 318 314 314 317 317 318 320 322 324 327 328 330 335 337 338 340 341 345 347
236 231 230 229 230 234 241 244 242 240 245 253 256 254 255 258 265 269 277 284 291 295 307 314 322 316 317 318 319 319 322 323 323 324 328 330 333 336 338 339 341 343 348 349
211 217 219 221 219 221 212 220 221 235 241 240 244 247 253 260 271 278 287 294 299 310 317 324 319 318 319 322 321 324 325 323 323 325 328 331 334 337 338 340 342 346 349 350
213 213 206 209 210 211 205 212 219 226 236 237 241 244 257 270 280 291 298 298 311 315 321 324 315 315 322 324 325 324 326 326 325 328 328 331 336 340 341 342 344 347 350 352
208 218 204 198 194 193 197 208 213 223 229 232 239 250 264 280 289 294 302 310 318 319 323 319 316 317 322 325 325 326 328 327 326 328 329 333 340 341 343 344 347 349 352 352
201 207 207 200 190 190 198 200 220 227 225 233 246 262 276 289 291 303 312 323 322 325 317 314 321 324 326 326 329 328 328 330 330 330 333 339 342 342 344 347 348 351 353 353
200 194 192 194 188 191 195 210 225 221 222 240 258 273 288 291 297 310 321 319 328 326 310 313 316 326 328 330 330 331 331 333 333 333 337 341 342 343 346 350 351 352 354 356
195 192 186 187 187 193 194 209 222 218 229 246 272 283 290 294 305 319 321 325 326 314 313 315 320 327 331 334 330 335 338 336 334 335 340 343 343 345 349 351 353 355 357 359
188 185 186 190 190 189 201 209 217 220 235 249 275 293 294 305 323 321 329 329 315 318 316 321 330 333 339 335 334 339 337 334 335 338 341 342 344 346 350 352 354 358 0 2
187 183 185 185 182 194 206 209 217 226 239 259 279 285 300 317 329 334 333 326 322 321 323 332 336 339 338 337 340 337 334 335 336 339 341 342 344 349 351 353 357 1 3 6
184 179 179 178 186 202 202 210 220 227 243 255 261 286 301 311 338 342 331 328 327 322 332 335 338 338 338 342 339 335 335 337 339 340 341 343 347 350 352 356 359 4 8 9
175 174 175 185 196 202 205 212 218 225 215 239 263 281 305 321 342 324 321 329 326 330 331 336 337 334 338 341 339 336 336 339 339 340 341 344 349 351 353 359 4 7 9 11
171 177 185 193 200 202 203 210 215 217 238 257 272 282 302 339 335 319 328 329 329 336 333 333 334 334 333 334 336 336 336 336 338 339 342 347 350 352 356 3 8 10 10 12
176 183 189 197 200 205 206 207 208 220 238 252 273 283 340 339 329 315 333 326 340 335 330 330 329 335 334 333 332 333 334 336 338 340 346 349 352 355 0 5 8 10 12 13
180 187 191 194 201 202 207 209 218 228 238 257 274 326 334 327 319 345 322 332 337 333 334 333 327 325 325 325 329 330 334 337 340 346 349 351 353 359 3 7 10 12 14 17
180 186 191 196 200 204 207 213 219 223 250 243 270 341 319 321 319 340 323 350 345 334 338 340 339 328 322 323 326 331 335 340 349 351 352 354 359 2 4 7 10 13 15 18
184 184 191 198 199 204 207 205 211 228 241 243 274 304 312 310 356 327 337 351 342 338 343 341 338 337 340 342 343 342 347 352 352 354 357 360 1 2 6 10 12 14 14 17
186 188 191 196 197 203 199 205 216 214 226 235 250 295 304 318 351 335 359 355 344 346 352 351 348 346 350 351 356 2 355 357 358 359 359 1 4 6 9 11 13 14 16 16
Height
10703 10709 10709 10710 10708 10707 10707 10711 10721 10722 10712 10715 10717 10718 10710 10712 10712 10712 10714 10713 10707 10705 10701 10696 10690 10683 10676 10668 10659 10647 10634 10623 10609 10594 10581 10568 10552 10536 10519 10503 10484 10463 10438 10412
10689 10691 10695 10699 10692 10691 10693 10692 10701 10706 10700 10704 10701 10702 10701 10696 10698 10697 10698 10696 10693 10691 10687 10683 10679 10671 10661 10655 10646 10633 10621 10611 10595 10581 10569 10557 10541 10523 10507 10489 10470 10449 10423 10397
10666 10674 10682 10681 10679 10678 10678 10675 10681 10687 10685 10688 10688 10688 10689 10683 10684 10684 10683 10682 10679 10677 10673 10669 10665 10658 10650 10643 10633 10621 10611 10598 10582 10569 10557 10544 10526 10510 10494 10478 10460 10437 10411 10384
10644 10658 10665 10662 10663 10662 10667 10659 10667 10669 10670 10672 10674 10674 10674 10672 10671 10672 10671 10669 10666 10664 10661 10656 10654 10646 10636 10630 10620 10610 10598 10586 10572 10560 10546 10534 10520 10505 10488 10470 10448 10424 10398 10370
10625 10635 10641 10644 10650 10644 10648 10648 10649 10652 10655 10658 10659 10661 10661 10660 10661 10660 10659 10658 10657 10652 10650 10645 10642 10634 10627 10619 10607 10599 10587 10576 10563 10549 10538 10526 10511 10497 10480 10459 10436 10413 10385 10358
10598 10609 10619 10622 10628 10626 10625 10631 10635 10638 10642 10644 10648 10651 10650 10651 10652 10650 10649 10647 10646 10643 10639 10633 10629 10622 10615 10608 10598 10588 10578 10566 10552 10540 10531 10518 10505 10490 10472 10452 10429 10405 10378 10350
10575 10582 10596 10597 10598 10604 10610 10614 10620 10626 10630 10633 10638 10640 10640 10643 10645 10640 10640 10637 10635 10633 10630 10625 10618 10613 10606 10596 10588 10578 10568 10557 10543 10534 10522 10511 10498 10483 10466 10447 10425 10400 10372 10344
10556 10564 10570 10574 10579 10590 10597 10604 10611 10617 10621 10625 10630 10631 10632 10633 10635 10633 10630 10629 10627 10624 10621 10616 10610 10602 10596 10588 10578 10568 10558 10547 10536 10528 10518 10506 10492 10477 10461 10441 10419 10393 10368 10341
10535 10544 10550 10560 10572 10579 10588 10596 10604 10610 10615 10618 10623 10624 10624 10623 10625 10625 10623 10621 10618 10617 10614 10610 10603 10596 10589 10578 10568 10558 10549 10540 10531 10523 10512 10501 10487 10472 10455 10436 10414 10388 10363 10338
10521 10531 10539 10549 10561 10572 10581 10591 10598 10603 10607 10612 10615 10615 10616 10615 10616 10618 10615 10613 10611 10610 10607 10601 10595 10588 10577 10570 10559 10551 10544 10534 10526 10518 10508 10496 10482 10468 10451 10431 10409 10383 10361 10337
10506 10516 10530 10543 10555 10564 10575 10584 10591 10597 10600 10605 10608 10608 10609 10609 10609 10608 10608 10607 10606 10603 10599 10593 10586 10577 10570 10560 10552 10545 10538 10529 10522 10514 10504 10492 10478 10464 10447 10428 10406 10381 10359 10338
10503 10511 10525 10535 10548 10559 10570 10578 10584 10589 10594 10598 10602 10603 10603 10603 10603 10603 10602 10602 10601 10597 10592 10588 10579 10572 10563 10553 10547 10539 10532 10525 10518 10511 10501 10488 10475 10460 10443 10425 10402 10380 10359 10339
10497 10507 10517 10531 10544 10556 10564 10571 10577 10582 10587 10592 10596 10598 10599 10600 10599 10598 10598 10597 10594 10591 10585 10579 10573 10566 10559 10549 10542 10534 10528 10523 10516 10508 10497 10485 10471 10456 10440 10421 10398 10379 10359 10340
10491 10505 10518 10529 10538 10552 10559 10568 10573 10578 10582 10588 10591 10592 10594 10595 10594 10594 10593 10591 10588 10584 10579 10575 10569 10561 10552 10544 10536 10531 10526 10521 10514 10504 10493 10482 10468 10453 10437 10418 10397 10378 10361 10342
10488 10499 10512 10526 10538 10548 10557 10564 10569 10573 10579 10582 10587 10588 10591 10591 10590 10589 10588 10586 10583 10579 10575 10570 10562 10555 10546 10538 10533 10528 10525 10519 10511 10500 10490 10479 10465 10450 10434 10416 10398 10380 10362 10345
10481 10496 10511 10526 10537 10543 10552 10560 10565 10571 10575 10580 10584 10584 10588 10587 10586 10585 10583 10581 10579 10575 10570 10564 10557 10547 10540 10535 10531 10527 10522 10516 10507 10497 10487 10476 10462 10448 10431 10415 10399 10382 10364 10347
10483 10497 10510 10522 10532 10541 10548 10556 10562 10567 10572 10578 10581 10582 10582 10583 10582 10582 10580 10578 10575 10571 10565 10558 10549 10542 10536 10533 10529 10524 10519 10513 10504 10494 10484 10473 10460 10445 10430 10416 10400 10384 10367 10351
10482 10495 10507 10519 10529 10538 10546 10552 10558 10563 10570 10576 10578 10578 10578 10579 10578 10578 10578 10575 10570 10565 10559 10552 10545 10540 10535 10532 10527 10522 10516 10509 10501 10492 10481 10470 10458 10444 10430 10416 10402 10386 10371 10356
10483 10496 10509 10519 10529 10536 10543 10550 10556 10562 10569 10572 10574 10574 10576 10576 10575 10574 10574 10572 10566 10561 10554 10548 10543 10539 10535 10530 10525 10520 10513 10506 10498 10489 10479 10468 10456 10443 10430 10416 10403 10389 10376 10361
10484 10496 10506 10515 10524 10531 10539 10546 10553 10560 10565 10568 10570 10571 10573 10573 10573 10573 10571 10567 10562 10557 10550 10545 10541 10537 10533 10528 10522 10516 10510 10503 10494 10486 10477 10466 10454 10442 10431 10418 10404 10391 10379 10366
10481 10491 10502 10512 10520 10527 10536 10542 10550 10557 10561 10564 10567 10568 10570 10570 10570 10570 10567 10563 10557 10553 10547 10542 10538 10534 10529 10525 10519 10513 10507 10499 10492 10484 10475 10464 10454 10443 10431 10418 10406 10394 10382 10371
10478 10487 10499 10509 10518 10527 10534 10539 10547 10553 10557 10560 10563 10565 10566 10567 10567 10566 10563 10559 10553 10549 10543 10538 10534 10530 10525 10521 10516 10510 10504 10497 10490 10482 10473 10463 10453 10443 10431 10419 10408 10397 10386 10375
10476 10485 10496 10507 10515 10523 10530 10538 10544 10550 10553 10557 10560 10562 10564 10565 10564 10562 10559 10555 10550 10544 10539 10533 10529 10525 10521 10517 10512 10507 10501 10495 10488 10481 10471 10462 10453 10443 10432 10422 10411 10401 10391 10381
10472 10482 10493 10502 10511 10520 10527 10535 10542 10547 10550 10555 10557 10559 10561 10562 10561 10559 10555 10551 10545 10539 10535 10529 10525 10521 10517 10512 10508 10505 10500 10494 10487 10478 10470 10461 10452 10442 10434 10424 10414 10404 10394 10384
10469 10481 10491 10500 10509 10517 10525 10532 10539 10544 10548 10552 10555 10556 10559 10559 10559 10555 10552 10547 10542 10537 10531 10525 10521 10517 10513 10509 10506 10502 10497 10491 10485 10478 10470 10461 10453 10444 10435 10426 10416 10406 10396 10387
10468 10478 10488 10498 10508 10514 10523 10530 10536 10541 10546 10549 10552 10555 10556 10557 10555 10551 10547 10544 10540 10534 10527 10522 10518 10514 10510 10507 10504 10499 10495 10490 10484 10477 10469 10462 10454 10445 10436 10427 10418 10408 10399 10389